Location: Newark
(42.8481°N, 0.4872°E)
Time: 02:22:47
(UTC+00:00)

X-37B - Visible Passes

Search period start: 01 October 2020 00:00
Search period end: 11 October 2020 00:00
Orbit: 386 x 387 km, 45.0° (Epoch: 18 September)

Date Brightness Start Highest point End Pass type
(mag) Time Alt. Az. Time Alt. Az. Time Alt. Az.
01 Oct 2.8 18:32:33 10° SSE 18:33:47 12° SE 18:34:08 12° SE visible
02 Oct 1.6 19:08:31 10° SW 19:10:54 32° S 19:10:54 32° S visible
03 Oct 2.2 18:10:34 10° SSW 18:13:01 21° SSE 18:15:15 11° E visible
03 Oct 2.8 19:46:11 10° WSW 19:47:32 23° WSW 19:47:32 23° WSW visible
04 Oct 0.7 18:47:41 10° WSW 18:50:48 58° SSE 18:51:46 37° E visible
05 Oct 1.5 19:25:40 10° W 19:28:11 49° WNW 19:28:11 49° WNW visible
06 Oct 0.5 18:27:03 10° WSW 18:30:14 88° SSE 18:32:14 21° ENE visible
06 Oct 3.8 20:03:52 10° WNW 20:04:31 15° WNW 20:04:31 15° WNW visible
07 Oct 0.9 19:05:12 10° W 19:08:21 57° N 19:08:32 55° NNE visible
08 Oct 0.8 18:06:32 10° W 18:09:43 68° N 18:12:31 13° ENE visible
08 Oct 3.0 19:43:22 10° WNW 19:44:47 23° WNW 19:44:47 23° WNW visible
09 Oct 1.0 18:44:44 10° WNW 18:47:52 54° N 18:48:46 38° NE visible
10 Oct 1.9 19:22:51 10° WNW 19:25:01 39° WNW 19:25:01 39° WNW visible
